962  
ASUS43 KDTX 210910  
RWRMI  
MICHIGAN HOURLY REGIONAL WEATHER ROUNDUP  
NATIONAL WEATHER SERVICE DETROIT/PONTIAC MI  
ISSUED BY NATIONAL WEATHER SERVICE GRAND RAPIDS MI  
400 AM EST TUE FEB 21 2017  
 
NOTE: "FAIR" INDICATES FEW OR NO CLOUDS BELOW 12,000 FEET WITH NO  
SIGNIFICANT WEATHER AND/OR TO VISIBILITY
.  
 
MIZ047>049-052>055-059>063-066>070-074>076-081>083-211000-  
SOUTHEAST LOWER MICHIGAN  
 
CITY SKY/WX TMP DP RH WIND PRES REMARKS
 
ADRIAN MOCLDY 35 33 92 E3 30.00F  
ALMA MOCLDY 40 33 74 SE3 29.95F  
ANN ARBOR CLOUDY 36 31 82 CALM 30.00F  
BAD AXE PTCLDY 37 27 67 SE10G18 29.98F WCI 30  
DETROIT CITY MOCLDY 36 31 82 SE5 30.02F WCI 32  
DETROIT CLOUDY 38 31 76 SE3 30.02F  
FLINT CLOUDY 38 31 76 S9 29.99F WCI 31  
GROSSE ILE PTCLDY 36 31 85 SE3 30.00F  
HILLSDALE MOCLDY 41 34 75 SE9 29.96F  
HOWELL PTCLDY 40 32 74 S8 29.99S WCI 34  
 
CITY SKY/WX TMP DP RH WIND PRES REMARKS
 
JACKSON MOCLDY 40 32 73 SE7 29.96F  
LANSING CLOUDY 43 32 65 S12 29.95F  
MASON PTCLDY 42 35 76 SE8 29.96F  
MONROE PTCLDY 36 34 92 E10 30.00F WCI 28  
MT. CLEMENS CLOUDY 36 33 88 SE8 30.01F WCI 29  
PONTIAC CLOUDY 36 29 75 SE5 29.99F WCI 32  
PORT HOPE N/A 37 27 67 S13G22 29.97F WCI 29  
PORT HURON CLOUDY 37 28 70 S3 30.02F  
TRI CITIES PTCLDY 40 32 73 S7 29.96F  
YPSILANTI CLOUDY 37 31 78 CALM 30.01F  

 
MIZ043>046-050>051-056>058-064>065-071>073-077>080-211000-  
SOUTHWEST LOWER MICHIGAN  
 
CITY SKY/WX TMP DP RH WIND PRES REMARKS
 
BATTLE CREEK CLOUDY 47 38 71 S12 29.96F  
BENTON HARBOR CLOUDY 54 42 64 S12 29.92S  
BIG RAPIDS CLOUDY 46 34 65 S8 29.87F  
COLDWATER CLOUDY 46 37 71 S9 29.97S  
HOLLAND CLOUDY 52 41 66 S10 29.90F  
GRAND RAPIDS MOCLDY 50 38 63 S14 29.91F  
KALAMAZOO CLOUDY 47 36 65 S8 29.95F  
MARSHALL PTCLDY 48 38 68 S6 29.95F  
MOUNT PLEASANT CLOUDY 39 32 75 CALM 29.95S  
MUSKEGON CLOUDY 57 43 59 S16G22 29.88F  
STURGIS CLOUDY 46 38 75 S7 29.96R  

 
MIZ016>042-211000-  
NORTHERN LOWER MICHIGAN  
 
CITY SKY/WX TMP DP RH WIND PRES REMARKS
 
ALPENA CLOUDY 40 31 70 S12G22 29.93F WCI 33  
BEAVER ISLAND LGT RAIN 44 38 81 S13G21 29.78F  
BELLAIRE CLOUDY 48 36 63 S12G17 29.83F  
CADILLAC CLOUDY 46 35 66 S5 29.87F  
CHARLEVOIX CLOUDY 48 36 61 S12G17 29.83F  
GAYLORD CLOUDY 43 31 62 S14 29.85F  
HOUGHTON LAKE CLOUDY 40 31 70 S12 29.91F WCI 33  
MANISTEE RAIN 51 42 71 S7 29.85F  
OSCODA CLOUDY 38 30 74 S8 29.96F WCI 32  
PELLSTON CLOUDY 42 31 64 SE7 29.81F  
TRAVERSE CITY CLOUDY 51 36 56 VRB7 29.82F  
LUDINGTON RAIN 53 46 78 S17G25 29.86R  

 
MIZ007>008-015-211000-  
EASTERN UPPER MICHIGAN  
 
CITY SKY/WX TMP DP RH WIND PRES REMARKS
 
KINROSS LGT RAIN 34 32 92 SE20 29.83F WCI 23  
MACKINAC ISLAN FLURRIES 36 36 99 SE9 29.82F WCI 29  
NEWBERRY LGT RAIN 37 36 96 S15 29.76F WCI 28  
S. S. MARIE LGT RAIN 34 31 88 E9G18 29.84F WCI 27  

 
MIZ004>006-011>014-085-211000-  
CENTRAL UPPER MICHIGAN  
 
CITY SKY/WX TMP DP RH WIND PRES REMARKS
 
MANISTIQUE LGT RAIN 37 36 97 SE6 29.75F WCI 32  
ESCANABA LGT RAIN 41 39 93 SW13 29.72F  
MENOMINEE CLOUDY 47 46 97 SW13 29.74F FOG  
SAWYER-GWINN HVY SNOW 40 40 97 S14 29.66F VSB<1/4 WCI 33  

 
MIZ001>003-009>011-084-211000-  
WESTERN UPPER MICHIGAN  
 
CITY SKY/WX TMP DP RH WIND PRES REMARKS
 
IRON MOUNTAIN FOG 45 43 93 S10 29.68R VSB 1/4  
HOUGHTON LGT RAIN 44 41 89 W28G41 29.60R FOG  
COPPER HARBOR N/A 41 40 96 SW9 29.55F  
IRONWOOD CLOUDY 43 41 93 W20G25 29.71R  

 
 
ABBREVIATIONS USED IN REMARKS  
TC - TEMPERATURE IN CELSIUS  
WCI - WIND CHILL INDEX  
HX - HEAT INDEX  
VSB - VISIBILITY  
 
 
 
CLICK HERE TO GO TO PREVIOUS BULLETINS.

The Nexlab MI Page Main Text Page